[[{"header":{"parameterUnit":"m.s-1","parameterCategory":1,"la1":30.2991,"la2":30.254,"lo1":-89.0895,"lo2":-89.0444,"dy":0.0017,"dx":0.0017,"nx":28,"ny":28,"refTime":"2025-07-08T09:00:00:Z","depth":0,"parameterNumber":2,"parameterNumberName":"U-component_of_WINDS"},"data":[0,0,0,0,0,0,0,0,0,0,0,0,0,0,0,0,0,0,0,0,0,0,0,0,0,0,0,0,0,0,0,0,0,0,0,0,0,0,0,0,0,0,0,0,0,0,0,0,0,0,0,0,0,0,0,0,0,0,3.8893,3.8895,0,3.9075,3.9077,3.9079,3.9036,3.9032,3.9029,3.9026,3.9215,3.9223,3.9231,0,0,0,0,0,0,0,0,0,0,0,0,0,3.851,3.8518,3.8893,3.8895,3.8897,3.9074,3.9077,3.9079,3.9037,3.9032,3.9028,3.9024,3.9212,3.9222,3.9232,0,0,0,0,0,0,0,0,0,0,0,0,0,3.8683,3.852,3.8892,3.8897,3.8899,3.9074,3.9077,3.908,3.9037,3.9032,3.9027,3.9022,3.9209,3.9221,3.9233,3.9415,0,0,3.9271,3.9277,0,0,0,0,0,0,0,0,3.8673,3.8697,3.8894,3.8897,3.89,3.9027,3.9011,3.9193,3.9039,3.8985,3.9026,3.9019,3.9157,3.9173,3.9219,3.9424,3.9432,3.9272,3.928,3.9285,3.9289,0,0,0,0,0,0,0,3.8661,3.8689,3.8965,3.8897,3.8901,3.8891,3.891,3.9046,3.9098,3.8989,3.8987,3.9009,3.9157,3.9207,3.9223,3.9435,3.9272,3.9283,3.9291,3.9295,3.9797,3.9803,0,0,0,0,0,0,3.8646,3.8679,3.8959,3.897,3.8771,3.8902,3.8923,3.8992,3.9097,3.9108,3.9013,3.9006,3.9188,3.9209,3.9229,3.9449,3.9285,3.9297,3.9304,3.9792,3.9799,3.9805,0,0,0,0,0,0,3.8638,3.8672,3.8952,3.8824,3.8859,3.8914,3.8992,3.8998,3.9048,3.9114,3.9124,3.9054,3.9185,3.9212,3.9369,3.9455,3.9302,3.9314,3.9785,3.9794,3.9802,3.989,0,0,0,0,0,0,3.8628,3.8669,3.8739,3.8826,3.8866,3.9088,3.8997,3.9005,3.9069,3.9062,3.9155,3.9166,3.9183,3.9351,3.9381,3.9469,3.9323,3.9777,3.9789,3.9799,3.9879,3.99,3.9918,0,0,0,0,0,3.8614,3.8757,3.8742,3.8776,3.8954,3.9093,3.9116,3.9132,3.9076,3.9146,3.9189,3.9163,3.944,3.9367,3.9401,3.9494,3.9772,3.9786,3.9798,3.9871,3.9896,3.9918,0,0,0,0,0,0,3.8679,3.8768,3.8753,3.8928,3.9003,3.9085,3.9174,3.9158,3.9252,3.9241,3.9257,3.9279,3.9439,3.9482,3.9399,3.9676,3.9598,3.9619,3.9641,3.9666,3.9685,3.9672,3.9334,0,0,0,0,0,3.8713,3.8818,3.8891,3.9038,3.9076,3.9119,3.918,3.9186,3.9265,3.9297,3.9351,3.9429,3.9533,3.9602,3.9702,3.9885,3.9905,3.9966,3.9986,4.0001,4.0019,4.0119,4.0147,3.9849,3.9848,3.9848,0,0,3.8786,3.8848,3.8913,3.9053,3.9112,3.922,3.9146,3.9265,3.9346,3.9315,3.9466,3.9509,3.9597,3.9767,3.9845,3.9808,4.0106,4.0018,4.003,4.004,4.0135,4.0163,4.0188,3.9858,3.9856,3.9854,0,0,3.8974,3.9031,3.916,3.922,3.9309,3.9337,3.9368,3.9452,3.9479,3.9631,3.961,3.9707,3.9887,3.995,4.0006,4.0218,4.0197,4.025,4.0352,4.0449,4.0472,4.0493,4.0569,4.0595,4.0267,4.0268,4.0268,0,3.9053,3.9216,3.9229,3.9349,3.9411,3.9387,3.9517,3.9575,3.9694,3.9737,3.9694,3.9919,3.9977,4.0162,4.0213,4.0259,4.0295,4.0239,4.0468,4.0489,4.0509,4.0581,4.0609,4.0273,4.0273,4.0272,4.0272,0,3.9309,3.9422,3.9515,3.9628,3.9701,3.9826,3.9858,3.993,3.9929,3.9961,4.0116,4.0184,4.0298,4.0342,4.0343,4.0527,4.0501,4.0463,4.0386,4.0543,4.061,4.0638,4.0282,4.028,4.0278,4.0277,0,0,3.9544,3.9661,3.9695,3.9746,3.9843,3.9931,4.0054,4.0164,4.0225,4.0308,4.0412,4.0565,4.0529,4.0593,4.0601,4.0686,4.0849,4.0637,4.0639,4.0674,4.1056,4.1084,4.1116,4.0835,4.0841,4.0845,4.1048,0,3.974,3.9957,3.9972,4.0168,4.0273,4.0251,4.0359,4.043,4.0463,4.0557,4.0594,4.0702,4.0647,4.0685,4.0768,4.0811,4.0926,4.0797,4.0933,4.0938,4.0912,4.1151,4.1182,4.137,4.1075,4.1079,4.1083,0,3.9998,4.0087,4.0294,4.0374,4.0419,4.0516,4.0617,4.0707,4.0787,4.0805,4.0876,4.0872,4.0999,4.0917,4.1093,4.1005,4.1062,4.1092,4.1099,4.1113,4.102,4.1171,4.1431,4.1459,4.1125,4.1121,4.1118,0,4.0149,4.032,4.0465,4.0509,4.0608,4.0676,4.072,4.0795,4.086,4.0949,4.0991,4.1094,4.1151,4.1231,4.1255,4.1193,4.1431,4.1351,4.145,4.1449,4.1501,4.1497,4.1773,4.1538,4.1537,4.1537,4.1536,0,4.0366,4.0494,4.0534,4.0623,4.0765,4.0781,4.0922,4.0962,4.1029,4.1126,4.1114,4.1206,4.1232,4.1329,4.1348,4.1491,4.1517,4.1536,4.1539,4.1537,4.1534,4.1574,4.1562,4.1544,4.1543,4.1541,4.154,0,4.0559,4.059,4.0748,4.0827,4.085,4.0951,4.102,4.1106,4.1137,4.126,4.129,4.1339,4.1452,4.1484,4.162,4.1633,4.1801,4.1793,4.1774,4.1774,4.1871,4.1862,4.2183,4.2225,4.1961,4.1964,4.1966,0,4.0696,4.0793,4.0882,4.0946,4.0993,4.1096,4.1162,4.1181,4.125,4.1348,4.1423,4.1534,4.1624,4.1806,4.1855,4.1959,4.1953,4.2058,4.1968,4.1963,4.1954,4.1948,4.1958,4.2075,4.2078,4.208,4.2082,0,4.0935,4.0946,4.104,4.1141,4.1219,4.1299,4.1376,4.1429,4.146,4.1538,4.1653,4.1722,4.1861,4.1972,4.2077,4.2123,4.2108,4.211,4.2138,4.2137,4.2121,4.2131,4.182,4.2102,4.21,4.2099,4.2098,4.2097,4.1104,4.1189,4.1265,4.1371,4.143,4.1502,4.1587,4.1628,4.1724,4.1837,4.1843,4.1967,4.2045,4.2184,4.2236,4.2334,4.2303,4.2345,4.2355,4.2365,4.2373,4.2105,4.2354,4.2353,4.2353,4.2352,4.2352,0,4.1343,4.1391,4.1488,4.1595,4.1678,4.1655,4.1739,4.181,4.192,4.1993,4.2081,4.2213,4.232,4.2376,4.2483,4.2551,4.2547,4.2578,4.2574,4.2584,4.2395,4.2359,4.258,4.258,4.258,4.258,4.258,4.2579,4.1477,4.162,4.1639,4.1811,4.1858,4.1979,4.2029,4.2095,4.2153,4.2301,4.2389,4.2425,4.2491,4.2602,4.27,4.2714,4.2754,4.2789,4.2799,4.2621,4.2598,4.2576,4.2542,4.2798,4.2798,4.298,4.2982,4.2983]},{"header":{"parameterUnit":"m.s-1","parameterCategory":1,"la1":30.2991,"la2":30.254,"lo1":-89.0895,"lo2":-89.0444,"dy":0.0017,"dx":0.0017,"nx":28,"ny":28,"refTime":"2025-07-08T09:00:00:Z","depth":0,"parameterNumber":3,"parameterNumberName":"V-component_of_WINDS"},"data":[0,0,0,0,0,0,0,0,0,0,0,0,0,0,0,0,0,0,0,0,0,0,0,0,0,0,0,0,0,0,0,0,0,0,0,0,0,0,0,0,0,0,0,0,0,0,0,0,0,0,0,0,0,0,0,0,0,0,-0.6845,-0.6845,0,-0.6882,-0.6882,-0.6882,-0.6906,-0.6906,-0.6906,-0.6906,-0.6943,-0.6943,-0.6944,0,0,0,0,0,0,0,0,0,0,0,0,0,-0.6794,-0.6795,-0.6845,-0.6845,-0.6846,-0.6881,-0.6882,-0.6882,-0.6906,-0.6906,-0.6906,-0.6906,-0.6942,-0.6943,-0.6944,0,0,0,0,0,0,0,0,0,0,0,0,0,-0.6822,-0.6795,-0.6845,-0.6862,-0.6864,-0.6881,-0.6882,-0.6883,-0.6906,-0.6906,-0.6906,-0.6907,-0.6942,-0.6943,-0.6944,-0.6948,0,0,-0.6948,-0.6949,0,0,0,0,0,0,0,0,-0.682,-0.6824,-0.6859,-0.6861,-0.6863,-0.6889,-0.6877,-0.6904,-0.6906,-0.689,-0.6906,-0.6907,-0.6925,-0.6927,-0.6934,-0.6949,-0.6951,-0.6948,-0.6949,-0.695,-0.695,0,0,0,0,0,0,0,-0.6819,-0.6822,-0.6859,-0.6859,-0.6862,-0.6867,-0.6872,-0.6883,-0.6905,-0.6891,-0.6893,-0.6897,-0.6926,-0.6932,-0.6935,-0.6951,-0.6948,-0.6949,-0.695,-0.6951,-0.6971,-0.6971,0,0,0,0,0,0,-0.6814,-0.6821,-0.6858,-0.686,-0.6842,-0.6868,-0.6873,-0.6881,-0.6905,-0.6909,-0.6897,-0.6898,-0.693,-0.6933,-0.6936,-0.6941,-0.695,-0.6951,-0.6951,-0.6972,-0.6971,-0.6971,0,0,0,0,0,0,-0.6813,-0.6817,-0.6857,-0.6841,-0.6847,-0.6869,-0.6877,-0.6881,-0.6888,-0.691,-0.6914,-0.69,-0.693,-0.6934,-0.6945,-0.6943,-0.6951,-0.6952,-0.6972,-0.6972,-0.6971,-0.6952,0,0,0,0,0,0,-0.6811,-0.6817,-0.6818,-0.6841,-0.6847,-0.6865,-0.6877,-0.6882,-0.689,-0.6892,-0.6913,-0.6917,-0.6931,-0.6943,-0.6946,-0.6945,-0.6953,-0.6972,-0.6972,-0.6971,-0.6953,-0.6951,-0.6949,0,0,0,0,0,-0.6809,-0.6811,-0.6818,-0.6823,-0.685,-0.6865,-0.6868,-0.6885,-0.689,-0.6892,-0.6906,-0.6916,-0.6943,-0.6943,-0.6947,-0.6946,-0.6972,-0.6972,-0.6971,-0.6953,-0.6951,-0.6949,0,0,0,0,0,0,-0.6787,-0.6814,-0.6823,-0.6832,-0.6846,-0.6869,-0.6871,-0.6882,-0.6894,-0.6896,-0.6915,-0.692,-0.6928,-0.6938,-0.6939,-0.6951,-0.6959,-0.6959,-0.6944,-0.6942,-0.694,-0.6937,-0.6954,0,0,0,0,0,-0.6783,-0.6793,-0.6817,-0.6822,-0.6829,-0.6849,-0.6856,-0.6867,-0.6883,-0.6889,-0.6903,-0.6917,-0.6929,-0.6936,-0.6948,-0.6955,-0.6959,-0.6956,-0.6954,-0.6953,-0.6953,-0.6957,-0.6956,-0.697,-0.697,-0.697,0,0,-0.6775,-0.6791,-0.6796,-0.6818,-0.683,-0.684,-0.6854,-0.6863,-0.6871,-0.689,-0.6901,-0.6912,-0.6929,-0.6938,-0.6942,-0.6947,-0.695,-0.6952,-0.6951,-0.6952,-0.6956,-0.6955,-0.6954,-0.697,-0.697,-0.697,0,0,-0.6765,-0.6779,-0.6785,-0.6797,-0.6816,-0.6829,-0.6831,-0.6852,-0.6861,-0.6872,-0.6887,-0.6896,-0.6915,-0.6927,-0.6935,-0.693,-0.694,-0.6933,-0.6924,-0.6928,-0.6927,-0.6926,-0.6924,-0.6923,-0.6933,-0.6933,-0.6933,0,-0.6753,-0.6769,-0.6787,-0.6796,-0.6805,-0.6823,-0.683,-0.684,-0.6862,-0.6867,-0.6872,-0.6897,-0.691,-0.6921,-0.692,-0.6927,-0.6929,-0.6931,-0.6926,-0.6925,-0.6925,-0.6923,-0.6922,-0.6932,-0.6932,-0.6933,-0.6933,0,-0.6752,-0.6763,-0.6766,-0.6786,-0.6796,-0.6803,-0.6822,-0.6829,-0.684,-0.6853,-0.6864,-0.688,-0.6896,-0.6899,-0.691,-0.6912,-0.6914,-0.6922,-0.6931,-0.6922,-0.6921,-0.692,-0.6931,-0.6931,-0.6932,-0.6932,0,0,-0.6729,-0.676,-0.676,-0.677,-0.6792,-0.6801,-0.6809,-0.6825,-0.683,-0.6845,-0.6852,-0.6868,-0.6876,-0.6885,-0.6897,-0.6901,-0.6896,-0.6908,-0.6909,-0.6905,-0.6899,-0.6893,-0.6892,-0.6903,-0.6903,-0.6903,-0.6898,0,-0.6722,-0.6738,-0.6755,-0.6765,-0.6775,-0.6793,-0.68,-0.6815,-0.6827,-0.6837,-0.685,-0.6862,-0.6871,-0.6877,-0.6881,-0.6895,-0.6895,-0.6896,-0.6909,-0.691,-0.6904,-0.6891,-0.6884,-0.6878,-0.6897,-0.6897,-0.6897,0,-0.6716,-0.673,-0.6741,-0.6763,-0.6767,-0.6774,-0.6789,-0.6799,-0.6815,-0.6824,-0.6835,-0.6848,-0.6857,-0.6865,-0.6878,-0.6879,-0.6885,-0.6893,-0.6893,-0.6895,-0.6902,-0.6891,-0.6877,-0.6876,-0.6897,-0.6897,-0.6897,0,-0.6697,-0.6719,-0.6728,-0.6736,-0.6761,-0.6765,-0.6776,-0.6793,-0.6801,-0.6815,-0.682,-0.6835,-0.6843,-0.6853,-0.687,-0.6874,-0.6881,-0.689,-0.6888,-0.6888,-0.6888,-0.6888,-0.6874,-0.6894,-0.6894,-0.6894,-0.6894,0,-0.6687,-0.6693,-0.672,-0.6726,-0.6733,-0.6752,-0.6759,-0.6771,-0.6786,-0.6795,-0.6811,-0.6819,-0.684,-0.685,-0.6863,-0.6872,-0.6875,-0.6882,-0.6886,-0.6881,-0.688,-0.6885,-0.6885,-0.6893,-0.6893,-0.6893,-0.6894,0,-0.6667,-0.6685,-0.6697,-0.672,-0.6726,-0.673,-0.675,-0.6756,-0.677,-0.678,-0.6784,-0.6805,-0.6817,-0.6835,-0.6853,-0.6862,-0.6869,-0.6874,-0.6863,-0.6865,-0.6862,-0.6862,-0.685,-0.6849,-0.687,-0.687,-0.6869,0,-0.6659,-0.6665,-0.6689,-0.6696,-0.6706,-0.6717,-0.6725,-0.6745,-0.6753,-0.6773,-0.6777,-0.6791,-0.6803,-0.6822,-0.6839,-0.6852,-0.6858,-0.6853,-0.686,-0.6855,-0.6857,-0.6857,-0.6857,-0.6851,-0.6851,-0.6851,-0.685,0,-0.6644,-0.6652,-0.6665,-0.668,-0.669,-0.6703,-0.6716,-0.6721,-0.6743,-0.6752,-0.6765,-0.6775,-0.6793,-0.6807,-0.6823,-0.6834,-0.6846,-0.6848,-0.6848,-0.6843,-0.6836,-0.6839,-0.6858,-0.6848,-0.6848,-0.6849,-0.6849,-0.6849,-0.6629,-0.6634,-0.6652,-0.6665,-0.6678,-0.669,-0.6697,-0.6712,-0.6723,-0.674,-0.6751,-0.6764,-0.678,-0.6804,-0.6814,-0.6824,-0.6829,-0.6829,-0.6829,-0.6829,-0.6827,-0.6835,-0.6827,-0.6827,-0.6827,-0.6827,-0.6827,0,-0.6614,-0.6626,-0.6638,-0.6657,-0.6667,-0.6678,-0.6694,-0.6701,-0.6712,-0.6727,-0.6739,-0.6754,-0.6768,-0.6786,-0.68,-0.6805,-0.6811,-0.6808,-0.6808,-0.681,-0.6822,-0.682,-0.6803,-0.6803,-0.6803,-0.6803,-0.6803,-0.6803,-0.6607,-0.6616,-0.6627,-0.6643,-0.6656,-0.6669,-0.6677,-0.6688,-0.67,-0.6717,-0.6728,-0.674,-0.6756,-0.6772,-0.6785,-0.679,-0.6794,-0.679,-0.6796,-0.6807,-0.6809,-0.6811,-0.6809,-0.6791,-0.6791,-0.6784,-0.6783,-0.6783]}]]